Location: Paris
(48.6709°N, 2.3750°E)
Time: 15:39:56
(UTC+02:00)

O/OREOS (USA 219) - Visible Passes

Search period start: 25 June 2022 00:00
Search period end: 05 July 2022 00:00
Orbit: 621 x 646 km, 72.0° (Epoch: 22 May)

Date Brightness Start Highest point End Pass type
(mag) Time Alt. Az. Time Alt. Az. Time Alt. Az.
25 Jun ? 02:13:23 10° N 02:17:07 24° NE 02:20:50 10° ESE visible
25 Jun ? 03:52:21 10° NW 03:56:51 54° WSW 04:00:55 12° S visible
26 Jun ? 02:35:05 10° NNW 02:39:28 42° ENE 02:43:51 10° SE visible
26 Jun ? 04:14:51 10° NW 04:18:43 27° WSW 04:21:37 15° SSW visible
27 Jun ? 01:18:45 10° N 01:21:28 15° NE 01:24:12 10° E visible
27 Jun ? 02:57:01 10° NNW 03:01:39 82° ENE 03:05:04 18° SSE visible
27 Jun ? 04:38:13 10° WNW 04:40:23 13° W 04:42:28 10° SW visible
28 Jun ? 01:40:08 10° N 01:43:59 25° NE 01:47:50 10° ESE visible
28 Jun ? 03:19:12 10° NW 03:23:39 49° WSW 03:26:01 25° S visible
29 Jun ? 02:01:52 10° NNW 02:06:19 46° ENE 02:09:40 17° SE visible
29 Jun ? 03:41:46 10° NW 03:45:28 24° WSW 03:47:04 20° SW visible
30 Jun ? 00:45:26 10° N 00:48:22 16° NE 00:51:17 10° E visible
30 Jun ? 02:23:50 10° NNW 02:28:28 90° E 02:30:47 29° SSE visible
30 Jun ? 04:05:26 10° WNW 04:07:08 12° W 04:08:11 11° WSW visible
01 Jul ? 01:06:53 10° N 01:10:51 27° NE 01:14:33 11° ESE visible
01 Jul ? 02:46:03 10° NW 02:50:26 44° WSW 02:51:58 32° SSW visible
01 Jul ? 23:51:31 10° NNE 23:52:36 11° NE 23:53:40 10° NE visible
02 Jul ? 01:28:39 10° NNW 01:33:09 50° ENE 01:35:47 23° SE visible
02 Jul ? 03:08:42 10° NW 03:12:14 22° WSW 03:13:12 21° WSW visible
03 Jul ? 00:12:08 10° N 00:15:14 18° NE 00:18:21 10° E visible
03 Jul ? 01:50:39 10° NNW 01:55:17 82° WSW 01:57:05 37° SSE visible
03 Jul ? 03:32:53 10° W 03:33:52 11° W 03:34:30 10° WSW visible
04 Jul ? 00:33:38 10° N 00:37:42 30° NE 00:41:00 14° ESE visible
04 Jul ? 02:12:55 10° NW 02:17:14 40° WSW 02:18:25 33° SW visible
04 Jul ? 23:17:57 10° NNE 23:19:30 11° NE 23:21:03 10° ENE visible
